Language: 


Des rapports , des résumés tant et plus, au choix de chacun....


Données statistiques de la station
Quotidien Rapport Janvier 3, 2018 Unités:  Anglais    Métrique   les deux
« Précédent Jour
Suivant Jour »
Quotidien Hebdomadaire Mensuel Annuel Actuel
  Haut: Bas: Moyen:
Température: TemperatureC °F 7.8 °F 9.8 °F
Pt de rosée: DewpointC °F 3.0 °F 6.2 °F
Humidité: Humidity % 63 % 77 %
Vitesse du vent: WindSpeedKMH mph 11.1 mph 30.6 mph
Rafales: WindSpeedGustKMH mph - -
Vent:- - WSW
Pression: PressurehPa in 988.0 in -
Précipitation: 9.4 in    
Historical Graphs
 
 
Données statistiques pour Janvier 3, 2018
Heure Température Point de rosée Pression Vent Vitesse du vent Refales Humidité Pluie (taux horaire)
TemperatureC °F DewpointC °F PressurehPa in Calm     Humidity % HourlyPrecipMM in
00:03 10.8 °F 10.0 °F 996.2 in South 11.9 mph 17.7 mph 97 % 0.0 in
00:04 10.8 °F 10.0 °F 996.2 in South 13.7 mph 17.7 mph 97 % 0.0 in
00:09 10.9 °F 11.0 °F 996.2 in WSW 14.0 mph 23.8 mph 97 % 0.0 in
00:14 11.0 °F 11.0 °F 996.8 in SSW 13.7 mph 24.8 mph 97 % 0.0 in
00:19 11.1 °F 11.0 °F 996.8 in SSW 11.9 mph 24.8 mph 97 % 0.0 in
00:20 11.1 °F 11.0 °F 996.8 in WSW 13.7 mph 24.8 mph 97 % 0.0 in
00:25 11.1 °F 11.0 °F 996.8 in SW 23.8 mph 31.4 mph 97 % 0.0 in
00:28 11.1 °F 11.0 °F 995.1 in SW 16.9 mph 31.4 mph 97 % 0.0 in
00:33 11.1 °F 11.0 °F 995.1 in SSW 11.1 mph 23.8 mph 97 % 0.0 in
00:34 11.1 °F 11.0 °F 995.1 in SW 17.2 mph 23.8 mph 97 % 0.0 in
00:40 11.0 °F 11.0 °F 995.1 in SSW 15.8 mph 24.8 mph 98 % 0.8 in
00:41 11.0 °F 11.0 °F 995.1 in SW 14.0 mph 24.8 mph 98 % 1.0 in
00:42 11.0 °F 11.0 °F 995.1 in SW 27.7 mph 27.7 mph 98 % 1.0 in
00:47 10.9 °F 11.0 °F 995.1 in SW 16.9 mph 27.7 mph 98 % 1.3 in
00:48 10.9 °F 11.0 °F 995.1 in SSW 19.8 mph 27.7 mph 98 % 1.3 in
00:53 10.9 °F 11.0 °F 995.1 in SW 19.8 mph 24.8 mph 98 % 1.5 in
00:55 10.9 °F 11.0 °F 995.1 in SSW 23.0 mph 32.8 mph 98 % 1.5 in
01:01 10.9 °F 11.0 °F 995.1 in SSW 14.0 mph 32.8 mph 98 % 1.8 in
01:04 10.9 °F 11.0 °F 995.1 in SSW 16.6 mph 32.8 mph 98 % 2.3 in
01:09 10.9 °F 11.0 °F 995.1 in SSW 20.6 mph 25.6 mph 98 % 2.5 in
01:10 10.9 °F 11.0 °F 995.1 in WSW 15.1 mph 25.6 mph 98 % 2.5 in
01:12 10.9 °F 11.0 °F 994.1 in SSW 14.3 mph 25.6 mph 98 % 2.5 in
01:17 10.9 °F 11.0 °F 994.1 in SW 20.1 mph 25.6 mph 98 % 2.8 in
01:21 11.0 °F 11.0 °F 994.1 in SSW 24.8 mph 37.5 mph 98 % 2.8 in
01:26 11.0 °F 11.0 °F 993.1 in SSW 14.0 mph 37.5 mph 98 % 2.8 in
01:31 11.1 °F 11.0 °F 993.1 in SSW 12.2 mph 32.0 mph 98 % 3.0 in
01:36 11.2 °F 11.0 °F 993.1 in SSW 15.8 mph 30.9 mph 98 % 3.3 in
01:39 11.2 °F 11.0 °F 993.1 in SSW 25.3 mph 36.0 mph 98 % 3.0 in
01:42 11.3 °F 11.0 °F 992.1 in SW 19.1 mph 36.0 mph 98 % 2.8 in
01:46 11.3 °F 11.0 °F 992.1 in WSW 28.0 mph 36.0 mph 98 % 2.8 in
01:51 11.4 °F 11.0 °F 992.1 in SW 33.1 mph 38.5 mph 98 % 2.5 in
01:53 11.4 °F 11.0 °F 992.1 in WSW 28.0 mph 38.5 mph 98 % 2.5 in
01:58 11.5 °F 12.0 °F 991.1 in SSW 27.7 mph 37.5 mph 98 % 2.3 in
02:00 11.6 °F 12.0 °F 991.1 in SW 20.6 mph 37.5 mph 98 % 2.3 in
02:05 11.7 °F 12.0 °F 991.1 in WSW 16.3 mph 39.6 mph 98 % 1.8 in
02:06 11.7 °F 12.0 °F 991.1 in WSW 24.5 mph 39.6 mph 98 % 1.5 in
02:13 11.7 °F 12.0 °F 991.1 in SSW 29.9 mph 39.6 mph 98 % 1.5 in
02:14 11.8 °F 12.0 °F 991.1 in SSW 25.6 mph 36.7 mph 98 % 1.5 in
02:20 11.9 °F 12.0 °F 991.1 in SW 41.7 mph 41.7 mph 98 % 1.5 in
02:22 12.0 °F 12.0 °F 991.1 in WSW 28.0 mph 41.7 mph 98 % 1.5 in
02:27 12.0 °F 12.0 °F 990.1 in SW 28.5 mph 41.7 mph 98 % 1.3 in
02:28 12.0 °F 12.0 °F 990.1 in WSW 25.3 mph 41.7 mph 98 % 1.3 in
02:29 12.0 °F 12.0 °F 990.1 in WSW 39.6 mph 41.7 mph 98 % 1.3 in
02:33 12.1 °F 12.0 °F 990.1 in WSW 42.2 mph 42.2 mph 98 % 0.8 in
02:38 12.2 °F 12.0 °F 990.1 in WSW 30.9 mph 42.2 mph 98 % 0.5 in
02:40 12.2 °F 12.0 °F 990.1 in WSW 19.5 mph 42.2 mph 98 % 0.5 in
02:45 12.2 °F 12.0 °F 989.1 in WSW 41.0 mph 41.0 mph 98 % 1.3 in
02:47 12.2 °F 12.0 °F 989.1 in WSW 26.7 mph 42.8 mph 98 % 1.3 in
02:48 12.2 °F 12.0 °F 989.1 in WSW 24.8 mph 42.8 mph 98 % 1.5 in
02:53 12.3 °F 13.0 °F 989.1 in WSW 28.5 mph 44.6 mph 98 % 2.5 in
02:57 12.3 °F 13.0 °F 989.1 in WSW 29.1 mph 44.6 mph 98 % 3.0 in
03:03 12.2 °F 12.0 °F 989.1 in West 28.0 mph 36.0 mph 98 % 3.8 in
03:05 12.2 °F 12.0 °F 989.1 in WSW 28.5 mph 36.0 mph 98 % 3.8 in
03:10 12.4 °F 13.0 °F 989.1 in West 42.2 mph 60.2 mph 98 % 3.8 in
03:12 12.5 °F 13.0 °F 989.1 in West 32.3 mph 63.4 mph 98 % 4.1 in
03:16 12.5 °F 13.0 °F 989.1 in WSW 48.3 mph 63.4 mph 98 % 4.3 in
03:21 12.4 °F 13.0 °F 989.1 in West 47.5 mph 56.8 mph 98 % 4.6 in
03:23 12.4 °F 13.0 °F 989.1 in West 49.7 mph 56.8 mph 98 % 4.6 in
03:28 12.3 °F 12.0 °F 989.1 in WNW 38.5 mph 66.9 mph 95 % 4.6 in
03:32 12.2 °F 11.0 °F 989.1 in West 39.6 mph 66.9 mph 93 % 4.6 in
03:37 12.0 °F 11.0 °F 989.1 in West 40.4 mph 73.9 mph 91 % 4.6 in
03:38 11.9 °F 11.0 °F 989.1 in West 37.0 mph 73.9 mph 91 % 4.6 in
03:39 11.9 °F 11.0 °F 989.1 in West 46.0 mph 73.9 mph 91 % 4.6 in
03:44 11.8 °F 10.0 °F 989.1 in West 45.7 mph 48.3 mph 91 % 4.1 in
03:48 11.8 °F 10.0 °F 989.1 in West 33.1 mph 46.0 mph 91 % 3.8 in
03:50 11.7 °F 10.0 °F 989.1 in WSW 38.1 mph 49.2 mph 91 % 3.3 in
03:55 11.7 °F 10.0 °F 989.1 in West 25.9 mph 49.2 mph 91 % 2.5 in
03:56 11.7 °F 10.0 °F 989.1 in WSW 27.7 mph 49.2 mph 91 % 2.3 in
04:01 11.7 °F 10.0 °F 991.1 in West 43.1 mph 45.1 mph 90 % 1.5 in
04:07 11.7 °F 10.0 °F 991.1 in West 30.2 mph 49.2 mph 88 % 1.5 in
04:08 11.7 °F 10.0 °F 991.1 in West 36.4 mph 49.2 mph 87 % 1.5 in
04:14 11.7 °F 9.0 °F 989.1 in WSW 30.9 mph 51.5 mph 86 % 0.8 in
04:15 11.6 °F 9.0 °F 989.1 in West 37.5 mph 51.5 mph 86 % 0.8 in
04:20 11.7 °F 9.0 °F 989.1 in West 39.3 mph 51.5 mph 86 % 0.3 in
04:25 11.7 °F 9.0 °F 989.1 in WSW 37.8 mph 52.1 mph 85 % 0.3 in
04:30 11.6 °F 9.0 °F 990.1 in WSW 52.6 mph 52.6 mph 85 % 0.3 in
04:31 11.6 °F 9.0 °F 990.1 in West 38.1 mph 52.6 mph 85 % 0.3 in
04:36 11.5 °F 9.0 °F 990.1 in West 45.7 mph 55.3 mph 83 % 0.3 in
04:40 11.5 °F 9.0 °F 990.1 in WSW 42.5 mph 55.3 mph 81 % 0.3 in
04:44 11.4 °F 8.0 °F 990.1 in WSW 36.7 mph 55.3 mph 80 % 0.3 in
04:49 11.3 °F 8.0 °F 990.1 in West 36.7 mph 51.5 mph 79 % 0.0 in
04:51 11.3 °F 8.0 °F 990.1 in WSW 47.1 mph 48.6 mph 79 % 0.0 in
04:56 11.3 °F 8.0 °F 990.1 in WSW 31.4 mph 47.9 mph 79 % 0.0 in
04:59 11.3 °F 8.0 °F 990.1 in West 34.3 mph 47.9 mph 79 % 0.0 in
05:04 11.3 °F 8.0 °F 990.1 in West 36.7 mph 49.7 mph 79 % 0.0 in
05:09 11.3 °F 8.0 °F 990.1 in WSW 28.0 mph 60.5 mph 80 % 0.0 in
05:10 11.3 °F 8.0 °F 990.1 in West 43.9 mph 60.5 mph 80 % 0.0 in
05:15 11.3 °F 8.0 °F 990.1 in WSW 44.6 mph 56.8 mph 79 % 0.0 in
05:20 11.3 °F 8.0 °F 990.1 in West 39.3 mph 60.5 mph 77 % 0.0 in
05:21 11.3 °F 7.0 °F 990.1 in WSW 37.8 mph 60.5 mph 76 % 0.0 in
05:26 11.2 °F 7.0 °F 988.0 in West 37.0 mph 60.5 mph 75 % 0.0 in
05:28 11.1 °F 7.0 °F 988.0 in WSW 45.7 mph 49.2 mph 76 % 0.0 in
05:33 11.1 °F 7.0 °F 988.0 in WSW 44.2 mph 52.1 mph 75 % 0.0 in
05:38 11.0 °F 7.0 °F 988.0 in WSW 43.9 mph 52.1 mph 74 % 0.0 in
05:40 11.0 °F 6.0 °F 988.0 in WSW 44.2 mph 45.7 mph 73 % 0.0 in
05:45 10.9 °F 6.0 °F 990.1 in WSW 41.0 mph 48.6 mph 71 % 0.0 in
05:46 10.9 °F 6.0 °F 990.1 in West 47.9 mph 48.6 mph 70 % 0.0 in
05:51 10.8 °F 5.0 °F 990.1 in WSW 63.4 mph 63.4 mph 65 % 0.0 in
05:53 10.8 °F 4.0 °F 990.1 in West 38.9 mph 63.4 mph 64 % 0.0 in
05:58 10.7 °F 4.0 °F 989.1 in West 37.0 mph 63.4 mph 64 % 0.0 in
05:59 10.7 °F 4.0 °F 989.1 in WSW 47.1 mph 63.4 mph 64 % 0.0 in
06:01 10.7 °F 4.0 °F 989.1 in WSW 59.7 mph 59.7 mph 63 % 0.0 in
06:04 10.6 °F 4.0 °F 989.1 in West 28.0 mph 60.8 mph 64 % 0.0 in
06:09 10.6 °F 4.0 °F 989.1 in WSW 49.2 mph 60.8 mph 63 % 0.0 in
06:10 10.6 °F 4.0 °F 989.1 in WSW 39.6 mph 60.8 mph 63 % 0.0 in
06:15 10.4 °F 4.0 °F 989.1 in West 59.7 mph 59.7 mph 64 % 0.0 in
06:16 10.4 °F 4.0 °F 989.1 in SW 36.0 mph 59.7 mph 64 % 0.0 in
06:17 10.4 °F 4.0 °F 989.1 in WSW 41.4 mph 59.7 mph 64 % 0.0 in
06:22 10.3 °F 4.0 °F 989.1 in West 42.8 mph 59.7 mph 65 % 0.0 in
06:24 10.3 °F 4.0 °F 989.1 in West 45.7 mph 59.7 mph 65 % 0.0 in
06:29 10.3 °F 4.0 °F 990.1 in West 46.5 mph 55.0 mph 65 % 0.0 in
06:30 10.3 °F 4.0 °F 990.1 in West 42.2 mph 55.0 mph 65 % 0.0 in
06:35 10.3 °F 4.0 °F 990.1 in West 22.4 mph 49.2 mph 66 % 0.0 in
06:38 10.2 °F 5.0 °F 990.1 in WSW 24.5 mph 49.2 mph 68 % 0.0 in
06:43 9.2 °F 5.0 °F 991.1 in West 38.1 mph 51.5 mph 72 % 0.0 in
06:44 9.0 °F 4.0 °F 991.1 in SSW 24.8 mph 51.5 mph 71 % 0.0 in
06:50 8.4 °F 4.0 °F 991.1 in West 16.9 mph 51.5 mph 73 % 0.0 in
06:52 8.2 °F 4.0 °F 991.1 in West 31.7 mph 38.1 mph 74 % 0.0 in
06:57 8.0 °F 4.0 °F 990.1 in West 23.3 mph 37.5 mph 76 % 0.0 in
06:58 8.0 °F 4.0 °F 990.1 in WSW 36.4 mph 37.5 mph 76 % 0.0 in
07:02 7.9 °F 4.0 °F 990.1 in West 17.2 mph 40.7 mph 78 % 0.0 in
07:04 7.9 °F 4.0 °F 990.1 in WNW 20.9 mph 40.7 mph 78 % 0.0 in
07:09 7.9 °F 5.0 °F 990.1 in North 16.6 mph 40.7 mph 79 % 0.0 in
07:12 7.9 °F 5.0 °F 990.1 in West 19.8 mph 27.7 mph 80 % 0.0 in
07:14 7.9 °F 5.0 °F 990.1 in West 28.5 mph 28.5 mph 80 % 0.0 in
07:19 7.9 °F 5.0 °F 990.1 in West 32.0 mph 32.0 mph 81 % 0.0 in
07:20 7.9 °F 5.0 °F 990.1 in West 24.8 mph 32.0 mph 81 % 0.0 in
07:25 7.9 °F 5.0 °F 990.1 in WSW 27.0 mph 35.2 mph 81 % 0.0 in
07:30 7.8 °F 5.0 °F 990.1 in West 17.7 mph 35.2 mph 82 % 0.0 in
07:31 7.8 °F 5.0 °F 990.1 in West 20.6 mph 35.2 mph 82 % 0.0 in
07:32 7.8 °F 5.0 °F 990.1 in West 16.6 mph 35.2 mph 82 % 0.0 in
07:36 7.9 °F 5.0 °F 990.1 in WNW 38.1 mph 38.1 mph 82 % 0.0 in
07:41 8.2 °F 5.0 °F 991.1 in WSW 33.1 mph 50.4 mph 78 % 0.0 in
07:42 8.3 °F 5.0 °F 991.1 in West 39.6 mph 50.4 mph 78 % 0.0 in
07:47 8.4 °F 5.0 °F 991.1 in WSW 38.5 mph 50.4 mph 77 % 0.0 in
07:48 8.5 °F 5.0 °F 991.1 in WSW 38.9 mph 50.4 mph 76 % 0.0 in
07:53 8.6 °F 5.0 °F 991.1 in West 28.5 mph 51.8 mph 76 % 0.0 in
07:58 8.7 °F 5.0 °F 991.1 in West 36.7 mph 51.8 mph 76 % 0.0 in
08:00 8.7 °F 5.0 °F 991.1 in West 31.7 mph 51.8 mph 76 % 0.0 in
08:05 8.7 °F 5.0 °F 991.1 in West 33.5 mph 52.1 mph 75 % 0.0 in
08:10 8.8 °F 4.0 °F 991.1 in West 37.8 mph 53.3 mph 71 % 0.0 in
08:13 8.9 °F 4.0 °F 991.1 in WSW 47.9 mph 53.3 mph 70 % 0.0 in
08:18 8.9 °F 4.0 °F 991.1 in West 37.5 mph 53.3 mph 70 % 0.0 in
08:19 8.9 °F 4.0 °F 991.1 in West 41.7 mph 52.6 mph 70 % 0.0 in
08:22 8.9 °F 4.0 °F 991.1 in WSW 29.1 mph 52.6 mph 70 % 0.0 in
08:27 8.8 °F 4.0 °F 992.1 in West 51.2 mph 51.2 mph 71 % 0.0 in
08:32 8.8 °F 4.0 °F 992.1 in West 20.1 mph 51.5 mph 68 % 0.0 in
08:36 8.8 °F 4.0 °F 992.1 in West 28.0 mph 51.5 mph 68 % 0.0 in
08:39 8.7 °F 3.0 °F 992.1 in WSW 39.3 mph 51.5 mph 69 % 0.0 in
08:42 8.6 °F 3.0 °F 993.1 in West 31.4 mph 46.8 mph 69 % 0.0 in
08:47 8.5 °F 3.0 °F 993.1 in WSW 24.8 mph 44.6 mph 69 % 0.0 in
08:50 8.5 °F 3.0 °F 993.1 in WNW 31.7 mph 51.8 mph 69 % 0.0 in
08:55 8.4 °F 3.0 °F 993.1 in West 44.2 mph 52.6 mph 70 % 0.0 in
08:57 8.5 °F 3.0 °F 993.1 in West 43.6 mph 52.6 mph 69 % 0.0 in
09:01 8.5 °F 3.0 °F 993.1 in West 53.3 mph 53.3 mph 69 % 0.0 in
09:06 8.4 °F 3.0 °F 993.1 in WSW 28.0 mph 53.3 mph 70 % 0.0 in
09:10 8.4 °F 3.0 °F 993.1 in West 36.7 mph 53.6 mph 70 % 0.0 in
09:15 8.5 °F 3.0 °F 993.1 in West 33.5 mph 58.2 mph 69 % 0.0 in
09:16 8.5 °F 3.0 °F 993.1 in West 19.8 mph 58.2 mph 69 % 0.0 in
09:18 8.4 °F 3.0 °F 993.1 in West 25.9 mph 58.2 mph 70 % 0.0 in
09:24 8.5 °F 3.0 °F 993.1 in West 35.6 mph 52.6 mph 69 % 0.0 in
09:27 8.5 °F 3.0 °F 993.1 in West 20.1 mph 52.9 mph 69 % 0.0 in
09:30 8.5 °F 3.0 °F 993.1 in West 28.5 mph 52.9 mph 69 % 0.0 in
09:34 8.5 °F 3.0 °F 993.1 in West 20.9 mph 52.9 mph 69 % 0.0 in
09:36 8.5 °F 3.0 °F 993.1 in WSW 44.6 mph 52.9 mph 69 % 0.0 in
09:41 8.5 °F 3.0 °F 994.1 in WSW 44.2 mph 44.6 mph 69 % 0.0 in
09:46 8.5 °F 3.0 °F 994.1 in West 36.7 mph 44.6 mph 69 % 0.0 in
09:49 8.5 °F 3.0 °F 994.1 in WSW 41.7 mph 51.8 mph 69 % 0.0 in
09:54 8.6 °F 3.0 °F 994.1 in West 39.3 mph 56.5 mph 69 % 0.0 in
09:57 8.6 °F 3.0 °F 994.1 in WSW 21.6 mph 56.5 mph 68 % 0.0 in
10:02 8.6 °F 3.0 °F 994.1 in West 43.6 mph 48.9 mph 69 % 0.0 in
10:07 8.7 °F 3.0 °F 994.1 in WSW 38.1 mph 48.9 mph 69 % 0.0 in
10:08 8.7 °F 4.0 °F 994.1 in West 45.1 mph 48.9 mph 70 % 0.0 in
10:13 8.8 °F 4.0 °F 994.1 in West 37.0 mph 50.0 mph 70 % 0.0 in
10:19 8.9 °F 4.0 °F 994.1 in West 39.6 mph 50.0 mph 70 % 0.0 in
10:20 8.9 °F 4.0 °F 994.1 in West 51.5 mph 51.5 mph 70 % 0.0 in
10:22 9.0 °F 4.0 °F 994.1 in West 38.9 mph 51.5 mph 70 % 0.0 in
10:27 9.0 °F 4.0 °F 995.1 in West 38.9 mph 51.5 mph 70 % 0.0 in
10:32 8.9 °F 4.0 °F 995.1 in West 51.8 mph 52.1 mph 70 % 0.0 in
10:33 8.9 °F 4.0 °F 995.1 in WSW 47.5 mph 52.1 mph 70 % 0.0 in
10:38 9.1 °F 4.0 °F 995.1 in West 47.9 mph 52.1 mph 70 % 0.0 in
10:43 9.3 °F 4.0 °F 995.1 in West 36.4 mph 52.6 mph 68 % 0.0 in
10:48 9.3 °F 4.0 °F 995.1 in West 36.4 mph 52.6 mph 68 % 0.0 in
10:52 9.3 °F 4.0 °F 995.1 in WSW 42.2 mph 52.1 mph 68 % 0.0 in
10:57 9.3 °F 4.0 °F 995.1 in WSW 50.0 mph 52.1 mph 67 % 0.0 in
11:02 9.3 °F 4.0 °F 995.1 in West 48.3 mph 50.0 mph 68 % 0.0 in
11:05 9.3 °F 4.0 °F 995.1 in WSW 32.8 mph 55.3 mph 67 % 0.0 in
11:08 9.3 °F 4.0 °F 995.1 in West 31.7 mph 56.5 mph 67 % 0.0 in
11:11 9.4 °F 4.0 °F 996.2 in WSW 40.7 mph 56.5 mph 67 % 0.0 in
11:14 9.4 °F 4.0 °F 996.2 in West 38.5 mph 56.5 mph 68 % 0.0 in
11:17 9.5 °F 4.0 °F 996.2 in West 45.7 mph 52.1 mph 68 % 0.0 in
11:22 9.5 °F 4.0 °F 996.2 in West 36.0 mph 52.1 mph 68 % 0.0 in
11:23 9.5 °F 4.0 °F 996.2 in WSW 31.4 mph 52.1 mph 68 % 0.0 in
11:28 9.5 °F 4.0 °F 996.8 in West 28.5 mph 45.1 mph 69 % 0.0 in
11:29 9.5 °F 4.0 °F 996.8 in WSW 26.2 mph 45.1 mph 68 % 0.0 in
11:30 9.5 °F 4.0 °F 996.8 in WSW 24.5 mph 45.1 mph 68 % 0.0 in
11:35 9.5 °F 4.0 °F 996.8 in West 36.0 mph 46.5 mph 69 % 0.0 in
11:40 9.6 °F 4.0 °F 996.8 in WNW 38.9 mph 46.5 mph 67 % 0.0 in
11:43 9.7 °F 4.0 °F 996.8 in WNW 38.9 mph 47.5 mph 68 % 0.0 in
11:44 9.7 °F 4.0 °F 996.8 in WSW 37.0 mph 47.5 mph 68 % 0.0 in
11:49 9.7 °F 4.0 °F 996.8 in WSW 48.3 mph 48.3 mph 67 % 0.0 in
11:50 9.7 °F 4.0 °F 996.8 in WNW 20.6 mph 48.3 mph 67 % 0.0 in
11:55 9.7 °F 4.0 °F 996.8 in West 42.8 mph 52.6 mph 66 % 0.0 in
11:58 9.7 °F 4.0 °F 996.8 in WSW 37.5 mph 54.1 mph 65 % 0.0 in
12:03 9.7 °F 4.0 °F 996.8 in WNW 38.9 mph 59.1 mph 66 % 0.0 in
12:04 9.7 °F 4.0 °F 996.8 in West 35.6 mph 59.1 mph 66 % 0.0 in
12:08 9.7 °F 3.0 °F 996.8 in WNW 23.3 mph 59.1 mph 64 % 0.0 in
12:13 9.7 °F 4.0 °F 996.8 in West 28.8 mph 52.1 mph 66 % 0.0 in
12:18 9.7 °F 4.0 °F 996.8 in West 36.4 mph 48.9 mph 66 % 0.0 in
12:19 9.8 °F 4.0 °F 996.8 in West 25.6 mph 48.9 mph 67 % 0.0 in
12:24 9.7 °F 4.0 °F 996.8 in WNW 20.9 mph 45.7 mph 67 % 0.0 in
12:26 9.7 °F 4.0 °F 997.9 in West 48.9 mph 48.9 mph 66 % 0.0 in
12:31 9.8 °F 4.0 °F 997.9 in West 41.4 mph 51.5 mph 65 % 0.0 in
12:34 9.8 °F 4.0 °F 997.9 in WSW 49.7 mph 51.5 mph 66 % 0.0 in
12:39 9.7 °F 4.0 °F 997.9 in WSW 27.4 mph 51.8 mph 66 % 0.0 in
12:40 9.7 °F 4.0 °F 997.9 in West 49.2 mph 51.8 mph 66 % 0.0 in
12:45 9.7 °F 4.0 °F 997.9 in SSW 42.2 mph 49.2 mph 66 % 0.0 in
12:46 9.7 °F 4.0 °F 997.9 in West 21.2 mph 49.2 mph 66 % 0.0 in
12:51 9.8 °F 4.0 °F 997.9 in WSW 40.7 mph 46.5 mph 66 % 0.0 in
12:56 9.8 °F 4.0 °F 997.9 in West 17.7 mph 46.5 mph 66 % 0.0 in
12:57 9.8 °F 4.0 °F 997.9 in West 17.7 mph 46.5 mph 66 % 0.0 in
13:02 9.9 °F 5.0 °F 997.9 in West 33.8 mph 45.7 mph 68 % 0.0 in
13:06 9.8 °F 4.0 °F 997.9 in West 41.0 mph 41.0 mph 68 % 0.0 in
13:10 9.8 °F 4.0 °F 997.9 in West 29.1 mph 44.6 mph 69 % 0.0 in
13:12 9.8 °F 5.0 °F 997.9 in West 37.0 mph 44.6 mph 70 % 0.0 in
13:17 9.8 °F 5.0 °F 997.9 in WSW 30.6 mph 51.8 mph 70 % 0.0 in
13:20 9.7 °F 5.0 °F 997.9 in WSW 29.1 mph 51.8 mph 70 % 0.0 in
13:24 9.7 °F 4.0 °F 997.9 in WSW 36.7 mph 49.2 mph 69 % 0.0 in
13:29 9.7 °F 5.0 °F 998.9 in West 27.0 mph 46.0 mph 71 % 0.0 in
13:31 9.7 °F 5.0 °F 998.9 in WSW 28.0 mph 42.5 mph 71 % 0.0 in
13:36 9.7 °F 5.0 °F 998.9 in WNW 33.5 mph 42.8 mph 70 % 0.0 in
13:41 9.7 °F 5.0 °F 997.9 in West 39.3 mph 43.6 mph 70 % 0.0 in
13:43 9.7 °F 5.0 °F 997.9 in West 42.5 mph 43.6 mph 70 % 0.0 in
13:48 9.8 °F 5.0 °F 997.9 in West 28.5 mph 44.6 mph 71 % 0.0 in
13:49 9.8 °F 5.0 °F 997.9 in WNW 39.6 mph 44.6 mph 71 % 0.0 in
13:53 9.9 °F 5.0 °F 997.9 in West 36.4 mph 44.6 mph 71 % 0.0 in
13:55 9.9 °F 5.0 °F 997.9 in West 28.5 mph 44.2 mph 71 % 0.0 in
14:00 9.9 °F 5.0 °F 999.9 in West 34.6 mph 44.6 mph 70 % 0.0 in
14:04 10.0 °F 5.0 °F 999.9 in WSW 25.9 mph 52.6 mph 71 % 0.0 in
14:09 10.0 °F 5.0 °F 999.9 in WSW 33.1 mph 52.6 mph 71 % 0.0 in
14:14 10.0 °F 5.0 °F 998.9 in West 35.2 mph 49.2 mph 71 % 0.0 in
14:17 10.0 °F 5.0 °F 998.9 in West 32.3 mph 49.2 mph 71 % 0.0 in
14:19 10.0 °F 6.0 °F 998.9 in WSW 37.5 mph 49.2 mph 72 % 0.0 in
14:24 10.0 °F 6.0 °F 998.9 in WSW 33.1 mph 49.7 mph 72 % 0.0 in
14:29 10.1 °F 5.0 °F 998.9 in West 43.9 mph 49.7 mph 71 % 0.0 in
14:31 10.1 °F 5.0 °F 998.9 in West 23.8 mph 49.7 mph 71 % 0.0 in
14:32 10.2 °F 6.0 °F 998.9 in WSW 31.7 mph 49.7 mph 72 % 0.0 in
14:37 10.2 °F 6.0 °F 998.9 in West 41.0 mph 48.6 mph 72 % 0.0 in
14:42 10.1 °F 5.0 °F 998.9 in West 38.1 mph 43.1 mph 71 % 0.0 in
14:45 10.1 °F 5.0 °F 998.9 in West 36.4 mph 48.9 mph 71 % 0.0 in
14:46 10.1 °F 5.0 °F 998.9 in West 30.2 mph 48.9 mph 71 % 0.0 in
14:50 10.2 °F 6.0 °F 998.9 in West 33.5 mph 48.9 mph 72 % 0.0 in
14:55 10.2 °F 6.0 °F 998.9 in West 31.7 mph 53.6 mph 71 % 0.0 in
15:00 10.1 °F 6.0 °F 998.9 in West 43.6 mph 53.6 mph 72 % 0.0 in
15:01 10.1 °F 6.0 °F 998.9 in West 24.8 mph 53.6 mph 72 % 0.0 in
15:02 10.1 °F 6.0 °F 998.9 in West 38.5 mph 53.6 mph 72 % 0.0 in
15:07 10.1 °F 6.0 °F 998.9 in WNW 19.5 mph 48.6 mph 72 % 0.0 in
15:09 10.1 °F 5.0 °F 998.9 in West 36.4 mph 56.5 mph 71 % 0.0 in
15:14 10.1 °F 6.0 °F 999.9 in WSW 35.6 mph 56.5 mph 72 % 0.0 in
15:15 10.1 °F 6.0 °F 999.9 in West 42.8 mph 56.5 mph 73 % 0.0 in
15:17 10.1 °F 6.0 °F 999.9 in WSW 36.4 mph 56.5 mph 72 % 0.0 in
15:20 10.1 °F 6.0 °F 999.9 in West 46.8 mph 52.9 mph 72 % 0.0 in
15:25 10.1 °F 6.0 °F 999.9 in West 37.5 mph 52.9 mph 72 % 0.0 in
15:27 10.1 °F 6.0 °F 1000.9 in West 24.5 mph 52.9 mph 72 % 0.0 in
15:32 10.1 °F 6.0 °F 1000.9 in WNW 37.8 mph 49.2 mph 72 % 0.0 in
15:35 10.1 °F 6.0 °F 1000.9 in WSW 37.8 mph 49.2 mph 72 % 0.0 in
15:38 10.0 °F 6.0 °F 1000.9 in WSW 32.8 mph 45.7 mph 72 % 0.0 in
15:40 10.0 °F 6.0 °F 1000.9 in West 35.2 mph 42.2 mph 73 % 0.0 in
15:45 10.0 °F 6.0 °F 1000.9 in West 28.8 mph 42.2 mph 73 % 0.0 in
15:46 10.0 °F 6.0 °F 1000.9 in West 26.2 mph 42.2 mph 73 % 0.0 in
15:51 10.0 °F 6.0 °F 1000.9 in WSW 36.0 mph 46.5 mph 73 % 0.0 in
15:57 10.0 °F 6.0 °F 999.9 in West 38.9 mph 46.5 mph 72 % 0.0 in
16:00 10.0 °F 6.0 °F 999.9 in SW 43.9 mph 45.1 mph 73 % 0.0 in
16:04 10.0 °F 6.0 °F 999.9 in West 30.9 mph 44.6 mph 73 % 0.0 in
16:09 9.9 °F 6.0 °F 999.9 in West 28.0 mph 47.5 mph 74 % 0.0 in
16:13 9.8 °F 6.0 °F 1000.9 in WSW 27.4 mph 47.9 mph 74 % 0.0 in
16:18 9.7 °F 6.0 °F 1000.9 in West 40.4 mph 47.9 mph 74 % 0.0 in
16:20 9.7 °F 6.0 °F 1000.9 in WSW 32.8 mph 47.9 mph 74 % 0.0 in
16:24 9.7 °F 6.0 °F 1000.9 in WSW 20.1 mph 46.5 mph 74 % 0.0 in
16:29 9.7 °F 6.0 °F 1000.9 in WSW 30.9 mph 45.1 mph 74 % 0.0 in
16:32 9.7 °F 6.0 °F 1000.9 in West 20.1 mph 45.1 mph 74 % 0.0 in
16:37 9.7 °F 6.0 °F 1000.9 in WSW 31.7 mph 38.5 mph 74 % 0.0 in
16:41 9.7 °F 6.0 °F 1000.9 in WSW 21.2 mph 36.0 mph 74 % 0.0 in
16:42 9.7 °F 6.0 °F 1000.9 in WSW 29.9 mph 36.0 mph 74 % 0.0 in
16:46 9.7 °F 6.0 °F 1000.9 in WSW 36.4 mph 40.7 mph 74 % 0.0 in
16:51 9.6 °F 6.0 °F 1000.9 in WSW 28.0 mph 40.7 mph 75 % 0.0 in
16:53 9.6 °F 6.0 °F 1000.9 in WSW 24.5 mph 40.7 mph 74 % 0.0 in
16:54 9.6 °F 6.0 °F 1000.9 in WSW 21.2 mph 37.8 mph 75 % 0.0 in
16:59 9.6 °F 6.0 °F 1000.9 in WSW 35.6 mph 39.6 mph 75 % 0.0 in
17:01 9.6 °F 6.0 °F 1000.9 in WSW 28.5 mph 39.6 mph 75 % 0.0 in
17:07 9.6 °F 6.0 °F 1000.9 in West 22.7 mph 40.7 mph 75 % 0.0 in
17:09 9.6 °F 6.0 °F 1000.9 in West 28.8 mph 40.7 mph 75 % 0.0 in
17:13 9.5 °F 6.0 °F 1000.9 in WSW 32.0 mph 40.7 mph 75 % 0.0 in
17:18 9.5 °F 6.0 °F 1000.9 in WSW 31.7 mph 43.1 mph 75 % 0.0 in
17:23 9.4 °F 6.0 °F 1000.9 in West 21.2 mph 43.1 mph 75 % 0.0 in
17:26 9.4 °F 6.0 °F 1000.9 in West 28.5 mph 39.6 mph 75 % 0.0 in
17:32 9.4 °F 6.0 °F 1000.9 in WSW 27.7 mph 39.6 mph 75 % 0.0 in
17:37 9.3 °F 6.0 °F 1000.9 in WSW 37.0 mph 38.5 mph 75 % 0.0 in
17:42 9.3 °F 6.0 °F 1000.9 in WSW 20.9 mph 38.1 mph 75 % 0.0 in
17:47 9.2 °F 6.0 °F 1000.9 in WSW 27.7 mph 38.1 mph 75 % 0.0 in
17:48 9.2 °F 6.0 °F 1000.9 in WSW 21.2 mph 38.1 mph 75 % 0.0 in
17:52 9.2 °F 6.0 °F 1000.9 in WSW 24.8 mph 38.1 mph 75 % 0.0 in
17:57 9.1 °F 5.0 °F 1000.9 in WSW 33.1 mph 37.8 mph 76 % 0.0 in
17:58 9.1 °F 5.0 °F 1000.9 in WSW 31.4 mph 37.8 mph 76 % 0.0 in
18:03 9.1 °F 5.0 °F 1000.9 in West 29.9 mph 40.7 mph 75 % 0.0 in
18:08 9.1 °F 5.0 °F 1000.9 in WSW 24.8 mph 40.7 mph 75 % 0.0 in
18:12 9.1 °F 5.0 °F 1000.9 in WSW 27.0 mph 39.3 mph 75 % 0.0 in
18:17 9.1 °F 5.0 °F 1000.9 in WSW 17.2 mph 39.3 mph 75 % 0.0 in
18:22 9.1 °F 5.0 °F 1000.9 in WSW 28.5 mph 36.7 mph 75 % 0.0 in
18:26 9.0 °F 5.0 °F 1001.9 in WSW 29.1 mph 36.4 mph 75 % 0.0 in
18:31 9.0 °F 5.0 °F 1001.9 in WSW 27.7 mph 39.3 mph 74 % 0.0 in
18:32 9.0 °F 5.0 °F 1001.9 in WSW 25.6 mph 39.3 mph 74 % 0.0 in
18:38 9.1 °F 5.0 °F 1001.9 in West 31.7 mph 39.3 mph 74 % 0.0 in
18:44 8.9 °F 5.0 °F 1000.9 in WSW 16.6 mph 39.3 mph 75 % 0.0 in
18:46 8.9 °F 5.0 °F 1000.9 in West 23.3 mph 39.3 mph 75 % 0.0 in
18:51 8.8 °F 5.0 °F 1000.9 in WSW 35.6 mph 40.4 mph 75 % 0.0 in
18:53 8.8 °F 5.0 °F 1000.9 in WSW 37.0 mph 40.4 mph 75 % 0.0 in
18:54 8.8 °F 5.0 °F 1000.9 in WSW 32.8 mph 40.4 mph 75 % 0.0 in
19:01 8.9 °F 5.0 °F 1000.9 in WSW 25.6 mph 38.9 mph 75 % 0.0 in
19:06 9.0 °F 5.0 °F 1000.9 in West 37.8 mph 42.8 mph 74 % 0.0 in
19:09 8.9 °F 5.0 °F 1000.9 in WSW 24.5 mph 42.8 mph 75 % 0.0 in
19:14 8.9 °F 5.0 °F 1000.9 in West 24.8 mph 42.8 mph 75 % 0.0 in
19:19 9.0 °F 5.0 °F 1000.9 in WSW 32.0 mph 38.5 mph 74 % 0.0 in
19:22 9.0 °F 5.0 °F 1000.9 in West 27.7 mph 39.6 mph 74 % 0.0 in
19:27 9.0 °F 5.0 °F 1000.9 in West 28.0 mph 39.6 mph 74 % 0.0 in
19:29 9.0 °F 5.0 °F 1000.9 in WSW 22.4 mph 39.6 mph 74 % 0.0 in
19:32 9.0 °F 5.0 °F 1000.9 in WSW 30.9 mph 35.2 mph 74 % 0.0 in
19:37 9.0 °F 5.0 °F 1000.9 in West 28.0 mph 35.6 mph 75 % 0.0 in
19:40 9.1 °F 5.0 °F 1000.9 in WSW 28.0 mph 35.6 mph 75 % 0.0 in
19:45 9.2 °F 6.0 °F 1001.9 in WSW 38.9 mph 43.9 mph 75 % 0.0 in
19:48 9.2 °F 6.0 °F 1001.9 in WSW 17.2 mph 43.9 mph 75 % 0.0 in
19:54 9.2 °F 6.0 °F 1001.9 in WSW 36.7 mph 43.9 mph 75 % 0.0 in
19:57 9.3 °F 6.0 °F 1001.9 in WSW 22.7 mph 41.4 mph 75 % 0.0 in
20:02 9.2 °F 6.0 °F 1001.9 in WSW 27.4 mph 41.4 mph 75 % 0.0 in
20:04 9.2 °F 6.0 °F 1001.9 in West 36.0 mph 41.0 mph 75 % 0.0 in
20:09 9.2 °F 6.0 °F 1001.9 in West 20.9 mph 37.0 mph 75 % 0.0 in
20:13 9.2 °F 6.0 °F 1001.9 in West 29.9 mph 37.0 mph 75 % 0.0 in
20:19 9.1 °F 5.0 °F 1001.9 in WSW 20.1 mph 37.5 mph 76 % 0.0 in
20:20 9.1 °F 5.0 °F 1001.9 in WSW 20.9 mph 37.5 mph 76 % 0.0 in
20:25 9.1 °F 5.0 °F 1001.9 in West 19.8 mph 34.3 mph 76 % 0.0 in
20:28 9.1 °F 5.0 °F 1001.9 in West 28.5 mph 28.8 mph 76 % 0.0 in
20:29 9.1 °F 5.0 °F 1001.9 in West 43.9 mph 43.9 mph 76 % 0.0 in
20:33 9.2 °F 6.0 °F 1001.9 in WSW 30.9 mph 44.2 mph 76 % 0.0 in
20:38 9.2 °F 6.0 °F 1001.9 in WSW 17.2 mph 44.2 mph 76 % 0.0 in
20:40 9.1 °F 5.0 °F 1001.9 in WSW 20.6 mph 41.0 mph 76 % 0.0 in
20:41 9.1 °F 5.0 °F 1001.9 in WSW 17.7 mph 41.0 mph 76 % 0.0 in
20:46 9.1 °F 5.0 °F 1001.9 in WSW 21.2 mph 41.0 mph 76 % 0.0 in
20:51 9.1 °F 5.0 °F 1001.9 in West 20.9 mph 37.5 mph 76 % 0.0 in
20:52 9.2 °F 6.0 °F 1001.9 in West 31.4 mph 37.5 mph 76 % 0.0 in
20:57 9.1 °F 5.0 °F 1001.9 in West 20.9 mph 37.5 mph 76 % 0.0 in
20:58 9.1 °F 5.0 °F 1001.9 in WSW 36.0 mph 43.6 mph 76 % 0.0 in
20:59 9.1 °F 5.0 °F 1001.9 in West 23.3 mph 43.6 mph 76 % 0.0 in
21:05 9.2 °F 6.0 °F 1001.9 in WSW 34.6 mph 43.6 mph 76 % 0.0 in
21:10 9.2 °F 6.0 °F 1001.9 in West 17.7 mph 36.7 mph 76 % 0.0 in
21:15 9.2 °F 6.0 °F 1001.9 in WSW 17.7 mph 41.0 mph 76 % 0.0 in
21:20 9.2 °F 6.0 °F 1001.9 in WSW 24.8 mph 41.0 mph 76 % 0.0 in
21:25 9.1 °F 5.0 °F 1001.9 in WSW 25.9 mph 36.7 mph 76 % 0.0 in
21:28 9.1 °F 5.0 °F 1001.9 in West 19.5 mph 36.7 mph 76 % 0.0 in
21:33 9.1 °F 6.0 °F 1001.9 in West 30.9 mph 36.7 mph 77 % 0.0 in
21:34 9.1 °F 6.0 °F 1001.9 in WSW 28.0 mph 36.7 mph 77 % 0.0 in
21:38 9.1 °F 6.0 °F 1001.9 in West 24.5 mph 32.0 mph 77 % 0.0 in
21:44 9.1 °F 6.0 °F 1001.9 in WSW 15.8 mph 27.7 mph 77 % 0.0 in
21:48 9.1 °F 5.0 °F 1001.9 in West 21.2 mph 37.5 mph 76 % 0.0 in
21:53 9.1 °F 5.0 °F 1001.9 in West 20.6 mph 37.5 mph 76 % 0.0 in
21:54 9.2 °F 6.0 °F 1001.9 in West 24.8 mph 37.5 mph 76 % 0.0 in
21:55 9.2 °F 6.0 °F 1001.9 in West 24.8 mph 37.5 mph 76 % 0.0 in
22:00 9.2 °F 6.0 °F 1001.9 in WSW 21.2 mph 37.0 mph 76 % 0.0 in
22:01 9.2 °F 6.0 °F 1001.9 in West 20.9 mph 37.0 mph 76 % 0.0 in
22:02 9.2 °F 6.0 °F 1001.9 in West 24.5 mph 37.0 mph 76 % 0.0 in
22:07 9.2 °F 6.0 °F 1001.9 in West 31.4 mph 36.4 mph 75 % 0.0 in
22:08 9.2 °F 6.0 °F 1001.9 in WSW 23.8 mph 36.4 mph 75 % 0.0 in
22:13 9.2 °F 6.0 °F 1001.9 in WSW 20.6 mph 36.4 mph 75 % 0.0 in
22:17 9.1 °F 5.0 °F 1001.9 in WSW 20.6 mph 30.2 mph 75 % 0.0 in
22:22 9.0 °F 5.0 °F 1001.9 in WSW 23.8 mph 27.0 mph 76 % 0.0 in
22:23 9.0 °F 5.0 °F 1001.9 in WSW 17.7 mph 27.0 mph 76 % 0.0 in
22:28 8.9 °F 5.0 °F 1001.9 in West 19.1 mph 27.0 mph 76 % 0.0 in
22:33 8.8 °F 6.0 °F 1001.9 in West 20.1 mph 27.7 mph 77 % 0.0 in
22:37 8.8 °F 6.0 °F 1001.9 in West 15.8 mph 27.7 mph 77 % 0.0 in
22:42 8.7 °F 5.0 °F 1001.9 in WSW 13.7 mph 27.4 mph 77 % 0.0 in
22:44 8.7 °F 5.0 °F 1001.9 in WSW 24.5 mph 27.4 mph 77 % 0.0 in
22:49 8.7 °F 5.0 °F 1001.9 in West 14.0 mph 29.1 mph 77 % 0.0 in
22:51 8.7 °F 5.0 °F 1001.9 in West 20.1 mph 29.1 mph 77 % 0.0 in
22:57 8.6 °F 5.0 °F 1001.9 in West 17.2 mph 29.1 mph 78 % 0.0 in
23:02 8.5 °F 5.0 °F 1001.9 in WSW 11.1 mph 24.8 mph 78 % 0.0 in
23:07 8.5 °F 6.0 °F 1001.9 in West 20.9 mph 22.4 mph 79 % 0.0 in
23:10 8.5 °F 6.0 °F 1001.9 in West 16.9 mph 25.6 mph 79 % 0.0 in
23:14 8.6 °F 6.0 °F 1001.9 in WSW 21.2 mph 31.7 mph 80 % 0.0 in
23:16 8.6 °F 6.0 °F 1001.9 in West 19.8 mph 31.7 mph 80 % 0.0 in
23:22 8.6 °F 6.0 °F 1001.9 in West 12.2 mph 28.3 mph 80 % 0.0 in
23:23 8.6 °F 6.0 °F 1001.9 in West 26.2 mph 28.3 mph 80 % 0.0 in
23:25 8.6 °F 6.0 °F 1001.9 in West 15.8 mph 32.0 mph 80 % 0.0 in
23:30 8.5 °F 6.0 °F 1001.9 in West 20.1 mph 32.0 mph 81 % 0.0 in
23:31 8.5 °F 6.0 °F 1001.9 in WSW 16.3 mph 32.0 mph 81 % 0.0 in
23:36 8.5 °F 6.0 °F 1001.9 in West 17.7 mph 27.4 mph 81 % 0.0 in
23:41 8.5 °F 6.0 °F 1001.9 in West 20.6 mph 27.4 mph 81 % 0.0 in
23:46 8.5 °F 6.0 °F 1001.9 in West 12.6 mph 24.5 mph 81 % 0.0 in
23:51 8.3 °F 6.0 °F 1001.9 in WSW 19.5 mph 21.2 mph 82 % 0.0 in
23:54 8.4 °F 6.0 °F 1001.9 in West 13.0 mph 22.7 mph 82 % 0.0 in
23:57 8.3 °F 6.0 °F 1000.9 in WSW 17.2 mph 22.7 mph 82 % 0.0 in
Le Gheer Warneton
Courtoisie de Weather Underground - 2.75 mb

Mise a jour : 21/02/2018 02:31:11
Généré par Cumulus 1.9.4 (1099)